{"data":{"norad_id":48693,"intl_designator":"2021-044BH","name":"STARLINK-2618","alt_names":[],"object_type":"PAYLOAD","status":"ACTIVE","operator":null,"country":"US","launch_date":"2021-05-26","launch_site_code":"AFETR","launch_vehicle":null,"mission":null,"orbit_class":"UNKNOWN","rcs_meters":null,"size_class":null,"mass_kg":null,"dimensions":null,"purposes":["comms"],"wikipedia_slug":null,"has_3d_model":false,"image_url":null,"decayed_at":null,"tle_current":{"epoch":"2026-05-25T02:53:21.015168Z","epoch_age_seconds":74726,"freshness":"FRESH","line1":"1 48693U 21044BH  26145.12038212  .00000392  00000+0  24392-4 0  9995","line2":"2 48693  53.1607  79.7571 0001132  99.0731 261.0399 15.31700669276076","mean_motion":15.31700669,"eccentricity":0.0001132,"inclination_deg":53.1607,"raan_deg":79.7571,"arg_perigee_deg":99.0731,"mean_anomaly_deg":261.0399,"bstar":2.4392e-5,"rev_number":27607,"period_min":94.013146899004,"perigee_km":469.96270832207,"apogee_km":471.5132936223,"semimajor_km":6848.8750009722,"source":"CELESTRAK","updated_at":"2026-05-25T13:38:16.763233Z"}}}